Location: ???????
(54.8556°N, 38.7164°E)
Time: 08:36:21
(UTC+00:00)

Daily predictions for brighter satellites

Satellite Brightness Start Highest point End
(mag) Time Altitude Azimuth Time Altitude Azimuth Time Altitude Azimuth
NOSS 3-2 (C) 4.0 13:33:53 10° S 13:38:34 36° ESE 13:44:05 10° ENE
Cosmos 2297 Rocket 2.6 13:34:26 10° NW 13:40:06 71° WSW 13:45:43 10° SSE
Cosmos 2034 Rocket 4.4 13:34:31 10° SSW 13:40:52 71° WNW 13:47:16 10° N
ACS3 Solar Sail 4.4 13:39:00 10° W 13:41:17 12° WNW 13:43:34 10° NW
Cosmos 2266 Rocket 4.2 13:35:28 10° N 13:41:26 49° ENE 13:47:17 10° SE
Cosmos 1626 Rocket 3.5 13:37:37 10° N 13:41:59 87° E 13:46:17 10° SSE
Meteor 1-20 Rocket 4.3 13:36:37 10° N 13:41:59 54° ENE 13:47:21 10° SSE
Cosmos 1356 Rocket 3.5 13:39:29 10° SSW 13:43:33 80° WNW 13:47:41 10° NNE
Cosmos 2228 3.0 13:40:08 10° S 13:44:23 82° E 13:48:40 10° NNE
Cosmos 2084 4.1 13:44:15 10° W 13:48:14 42° NNW 13:52:11 10° NE
Cosmos 44 Rocket 4.3 13:45:20 10° NW 13:49:52 31° NNE 13:54:28 10° E
Iridium 51 3.7 13:47:10 10° S 13:50:20 84° E 13:53:34 10° N
JB-3 4.2 13:49:26 10° NNE 13:53:04 59° E 13:56:38 10° S
Cosmos 1315 Rocket 3.3 13:50:09 10° SSW 13:53:57 58° WNW 13:57:44 10° N
IGS 5A 3.4 13:50:27 10° SSE 13:54:19 55° ENE 13:58:14 10° N
CZ-4C R/B 3.5 13:49:24 10° NW 13:56:01 65° SW 14:04:20 10° SSE
Cosmos 1461 3.2 13:52:29 10° SSW 13:56:13 45° SE 13:59:53 11° NE
Cosmos 2151 2.9 13:52:38 10° N 13:56:48 67° ENE 14:00:57 10° SSE
Cosmos 1867 4.2 13:52:47 10° NW 13:58:12 62° SW 14:03:34 10° SSE
ARIANE 5 R/B 2.9 13:53:59 10° SE 13:58:43 40° ENE 14:03:33 10° N
Cosmos 1844 Rocket 3.8 13:56:07 10° NNW 14:00:46 25° NNE 14:05:24 10° E
USA 290 4.2 13:58:27 10° NW 14:01:27 34° WSW 14:04:27 10° S
CORIOLIS 4.2 13:58:40 10° SE 14:03:53 57° ENE 14:09:08 10° N
Cosmos 1544 Rocket 3.5 13:59:35 10° S 14:04:00 76° E 14:08:27 10° NNE
Cosmos 2219 3.5 13:59:01 10° NNW 14:04:35 47° NE 14:10:07 10° ESE
CENTAUR R/B 3.0 14:00:07 10° WSW 14:06:13 61° NNW 14:13:39 11° NE
Cosmos 1980 Rocket 3.5 14:02:50 10° SSE 14:06:56 21° ESE 14:10:31 12° ENE
Cosmos 2263 Rocket 2.2 14:04:27 10° NNW 14:10:08 65° NE 14:15:47 10° SE
IRS-1C 4.3 14:06:18 10° SE 14:11:25 50° ENE 14:16:34 10° N
UNK 4.4 14:08:28 10° NNE 14:12:38 33° E 14:16:45 10° SSE
Meteor 1-28 Rocket 3.2 14:12:49 10° NNE 14:16:04 44° E 14:19:16 10° S
Cosmos 1726 Rocket 4.5 14:12:34 10° SSE 14:16:36 31° E 14:20:35 10° NNE
CBERS-1 4.1 14:12:23 10° SSE 14:17:31 83° WSW 14:22:39 10° NNW
Cosmos 1943 Rocket 4.0 14:15:45 10° NW 14:18:50 15° N 14:21:57 10° NNE
Meteor 1-5 Rocket 4.2 14:14:19 10° N 14:19:35 56° ENE 14:24:58 10° SSE
NOSS 2-2 (D) 2.9 14:18:10 10° WSW 14:21:15 63° NW 14:23:27 17° NE
Cosmos 1602 Rocket 3.8 14:17:22 10° NNW 14:21:46 72° W 14:26:05 10° S
CZ-2D R/B 3.1 14:21:31 10° SE 14:24:29 40° ENE 14:27:29 10° N
Cosmos 1782 3.0 14:21:56 10° SSW 14:25:29 63° WNW 14:29:04 10° N
SPOT 1/Viking Rocket 4.1 14:21:03 10° SE 14:25:45 36° ENE 14:30:28 10° N
NOSS 2-3 (D) 4.4 14:23:14 10° S 14:26:19 25° ESE 14:28:13 17° E
SAR-Lupe-4 3.7 14:23:27 10° SE 14:26:53 48° ENE 14:30:20 10° N
AQUARIUS 4.3 14:22:52 10° SE 14:27:04 47° ENE 14:31:20 10° N
NOSS 2-3 (E) 4.3 14:24:23 10° S 14:27:31 27° SE 14:29:28 18° E
Cosmos 1538 Rocket 4.0 14:22:20 10° NNW 14:27:38 69° ENE 14:32:57 10° SE
YAOGAN 1 3.6 14:24:24 10° ESE 14:27:45 23° ENE 14:31:07 10° N
Meteor 1-25 Rocket 4.3 14:24:28 10° NNW 14:30:20 89° WSW 14:36:07 10° SSE
Cosmos 2227 Rocket 2.7 14:26:17 10° NW 14:31:53 65° WSW 14:37:28 10° SSE
Okean 1-7 Rocket 3.7 14:29:23 10° NNW 14:33:47 78° W 14:38:08 10° S
SL-16 R/B 2.5 14:28:52 10° NNE 14:35:09 85° ESE 14:41:21 10° SSW
Cosmos 2369 Rocket 3.9 14:32:57 10° WNW 14:37:19 22° NNW 14:41:42 10° NNE
Cosmos 1933 3.2 14:34:14 10° S 14:38:01 62° E 14:41:44 10° NNE
Cosmos 1743 4.4 14:36:44 10° NNW 14:39:37 29° W 14:42:28 10° SSW
Cosmos 1503 Rocket 4.0 14:34:24 10° SSW 14:39:38 87° ESE 14:44:31 12° NNE
USA 238 DEB 4.2 14:34:32 10° S 14:40:04 36° ESE 14:44:05 19° ENE
MOS 1 Rocket 3.5 14:35:04 10° SSE 14:40:04 62° ENE 14:45:19 10° N
USA 238 4.2 14:34:40 10° S 14:40:11 36° ESE 14:44:11 19° ENE
SAR-Lupe-1 4.0 14:36:47 10° SSE 14:40:20 59° ENE 14:43:55 10° N
SMAP 3.1 14:36:25 10° SSE 14:41:05 85° WSW 14:45:48 10° NNW
Lacrosse 4 Rocket 3.2 14:39:35 10° WNW 14:42:37 20° NNW 14:45:13 12° NNE
PSLV R/B 4.4 14:40:53 13° ESE 14:43:39 25° ENE 14:47:01 10° N
Landsat 7 3.7 14:40:16 10° SSE 14:44:55 84° ENE 14:49:37 10° NNW
Cosmos 1697 Rocket 2.7 14:39:51 10° SSW 14:45:25 69° ESE 14:49:54 16° NE
USA 215 3.3 14:40:15 17° ENE 14:45:26 78° N 14:52:00 10° W
Cosmos 1953 Rocket 3.5 14:42:26 10° N 14:46:54 69° ENE 14:51:20 10° SSE
Lacrosse 5 rocket 1.1 14:43:39 10° W 14:47:21 60° N 14:49:01 29° ENE
Thor Agena Rocket 4.0 14:43:21 10° S 14:48:30 65° WSW 14:53:36 10° NNW
COSMO-SKYMED 1 4.4 14:51:25 13° ESE 14:51:25 13° ESE 14:52:20 10° SE
NOSS 2-2 (E) 3.3 14:46:51 10° WSW 14:49:50 46° NNW 14:51:12 26° NNE
Cosmos 1656 4.3 14:45:20 10° SW 14:50:52 54° NW 14:55:57 13° NNE
Cosmos 1354 Rocket 3.9 14:46:02 10° SSW 14:51:17 79° ESE 14:55:39 15° NNE
Cosmos 1777 Rocket 4.2 14:46:21 10° SW 14:51:35 71° WNW 14:56:25 12° NNE
SJ-12 3.6 14:48:11 10° SSE 14:51:58 84° ENE 14:55:48 10° NNW
Cosmos 2278 Rocket 4.0 14:49:11 10° NNW 14:52:35 16° N 14:54:34 14° NNE
BREEZE-M DEB (TANK) 4.3 14:50:18 10° WSW 14:53:23 45° S 15:02:09 10° ESE
Cosmos 1825 Rocket 3.9 14:49:46 10° NNW 14:54:06 67° W 14:58:22 10° S
Cosmos 372 Rocket 4.5 14:50:58 10° S 14:55:40 38° ESE 14:57:57 25° ENE
Cosmos 1076 Rocket 3.4 14:51:42 10° NNW 14:56:03 88° E 15:00:22 10° S
Cosmos 1898 Rocket 4.2 14:53:02 10° SSE 14:57:36 33° ESE 14:59:22 26° ENE
NOSS 2-2 (C) 4.2 14:55:31 10° W 14:58:07 26° NNW 14:59:06 22° NNE
ERS-1 4.4 14:54:20 10° SSE 14:59:19 90° E 15:04:19 10° NNW
Spot 4 Rocket 4.2 14:55:01 10° SE 14:59:54 47° ENE 15:04:48 10° N
Cosmos 2112 Rocket 4.3 14:55:11 10° NNW 15:00:10 43° NE 15:04:01 16° ESE
IRS-P3 4.0 14:55:06 10° SSE 15:00:25 82° ENE 15:05:46 10° NNW
Cosmos 2098 Rocket 4.4 14:58:35 10° SW 15:03:02 45° WNW 15:08:11 10° N
Cosmos 1805 2.8 15:02:27 10° N 15:05:47 57° ENE 15:09:06 10° SSE
Cosmos 1655 Rocket 4.0 15:01:53 10° NNW 15:08:10 83° W 15:14:23 10° S
Cosmos 923 Rocket 3.9 15:03:47 10° NNW 15:09:00 69° ENE 15:14:10 10° SE
Radarsat Rocket 4.5 15:01:49 10° SE 15:09:27 61° ENE 15:16:13 10° NNW
Cosmos 1937 Rocket 4.1 15:07:07 10° SSE 15:11:40 32° ESE 15:12:17 31° E
Cosmos 990 Rocket 4.0 15:08:56 10° SSW 15:14:05 83° WNW 15:17:45 20° NNE
Cosmos 1844 3.9 15:09:34 10° NNW 15:15:00 47° NE 15:17:29 29° ESE
GEOS 3 Rocket 3.9 15:12:45 30° ENE 15:15:11 53° SE 15:20:27 10° SSW
Resurs 01 Rocket 3.3 15:18:08 19° NNE 15:18:08 19° NNE 15:19:40 10° N
Cosmos 494 Rocket 4.1 15:15:15 10° NNW 15:20:23 50° NE 15:22:41 30° ESE
Cosmos 2082 3.8 15:15:21 10° NW 15:21:05 79° WSW 15:26:49 10° SSE
Meteor 2-11 Rocket 4.5 15:15:05 10° N 15:21:10 56° ENE 15:27:13 10° SSE
Gbstr 26 Del rocket 3.2 15:18:19 10° WSW 15:22:08 44° SSE 15:22:51 39° SE
SJ-7 4.1 15:23:14 46° ESE 15:24:02 59° ENE 15:27:47 10° N
NOSS 3-2 (A) 4.0 15:19:50 10° W 15:25:14 49° NNW 15:28:38 26° NE
Cosmos 2058 Rocket 3.0 15:23:30 10° S 15:27:57 68° E 15:29:48 34° NNE
NOSS 3-2 (C) 3.5 15:23:37 10° WSW 15:28:59 68° NNW 15:32:13 30° NE
CZ-4 R/B 4.4 15:25:33 10° SSE 15:29:29 79° WSW 15:33:28 10° NNW
IRAS Rocket 4.1 15:24:50 10° SSE 15:30:15 68° ENE 15:35:43 10° NNW
Cosmos 44 Rocket 3.3 15:26:52 10° NW 15:32:00 75° NE 15:34:02 38° ESE
Cosmos 1606 Rocket 4.5 15:27:54 10° SSW 15:32:12 48° WNW 15:36:31 10° N
Cosmos 1461 3.7 15:29:19 10° WSW 15:33:02 40° NNW 15:34:00 34° N
Cosmos 2227 4.1 15:27:29 10° NNW 15:33:10 69° NE 15:36:18 27° SE
Aureole 1 Rocket 3.5 15:28:54 10° SSW 15:33:48 78° ESE 15:37:03 28° NNE
Meteor 2-9 Rocket 4.3 15:31:06 10° N 15:36:10 44° ENE 15:36:10 44° ENE
SL-16 R/B 3.8 15:32:12 10° SSE 15:34:05 18° SE 15:34:05 18° SE
ARIANE 5 R/B 3.8 15:32:58 10° SSW 15:37:47 41° W 15:42:41 10° NNW
Okean 1 3.9 15:35:36 10° S 15:37:57 38° S 15:37:57 38° S
Cosmos-2242 2.8 15:35:20 10° S 15:39:34 80° E 15:40:29 54° NNE
Cosmos 1680 Rocket 3.4 15:35:04 10° NNW 15:40:19 86° ENE 15:45:16 12° SSE
Cosmos 1844 Rocket 2.6 15:39:54 10° NNW 15:45:36 73° NE 15:47:51 38° SE
BREEZE-M DEB (TANK) 4.5 15:42:38 10° W 15:46:14 38° S 15:56:40 11° SE
Resurs 1-3 3.5 15:42:36 10° SSE 15:46:54 84° WSW 15:51:15 10° NNW
Cosmos 2219 4.3 15:43:18 10° NW 15:48:45 46° WSW 15:54:11 10° S
NOAA 6 3.8 15:43:57 10° SSE 15:49:03 78° ENE 15:54:10 10° NNW
Nadezhda 2 Rocket 4.5 15:43:15 10° NNW 15:49:24 82° W 15:55:29 10° S
Cosmos 1980 Rocket 2.1 15:44:34 10° SSW 15:50:14 89° NW 15:52:17 42° NNE
USA 281 4.0 15:50:37 31° NE 15:50:37 31° NE 15:56:10 10° NNW
Cosmos 2263 Rocket 4.1 15:48:48 10° NW 15:53:42 31° WSW 15:58:36 10° SSW
OceanSat 1 rocket 4.5 15:49:47 10° SSE 15:54:32 89° WSW 15:59:16 10° NNW
Meteor 2-2 Rocket 4.1 15:51:13 10° SSW 15:56:52 90° ESE 16:00:12 26° NNE
Cosmos 1553 Rocket 3.9 15:51:27 10° S 15:57:38 80° E 16:03:59 10° NNE
CENTAUR R/B 3.5 15:51:36 10° WNW 15:58:08 45° N 16:00:45 35° NE
CZ-2D R/B 4.1 15:54:30 10° S 15:58:34 54° WSW 16:02:37 10° NNW
EO 1 Delta rocket 4.3 15:58:37 57° ENE 15:58:41 57° ENE 16:04:59 10° N
NOSS 2-3 (C) 3.7 15:56:54 10° SW 15:59:41 54° WSW 15:59:41 54° WSW
COSMOS 2455 3.4 15:55:00 10° S 15:59:47 40° SE 15:59:47 40° SE
Meteor 1-26 Rocket 4.1 15:55:42 10° SSW 16:01:06 83° WNW 16:03:54 30° N
YAOGAN 1 3.0 15:59:06 10° S 16:03:18 58° WSW 16:07:32 10° NNW
Cosmos 1943 Rocket 3.8 16:00:35 10° NNW 16:03:34 20° N 16:03:34 20° N
SPOT 1/Viking Rocket 4.5 15:59:58 10° S 16:05:00 48° W 16:10:03 10° NNW
Cosmos 1709 Rocket 3.8 15:59:05 10° N 16:05:10 62° ENE 16:05:38 60° E
Cosmos 2369 3.6 16:04:20 10° SSW 16:10:03 80° ESE 16:10:35 72° ENE
Cosmos 1745 Rocket 3.8 16:03:58 10° N 16:10:12 84° ENE 16:16:20 10° SSE
NOSS 2-3 (D) 4.3 16:12:13 10° WSW 16:15:00 44° W 16:15:00 44° W
SKYMED 2 4.0 16:16:13 61° WNW 16:16:15 61° WNW 16:20:31 10° SSW
NOSS 2-3 (E) 4.4 16:13:34 10° WSW 16:16:17 41° WNW 16:16:17 41° WNW
SL-16 R/B 4.3 16:13:01 10° N 16:18:07 27° NW 16:23:12 10° WSW
PSLV R/B 4.3 16:17:07 31° SSW 16:18:39 46° W 16:22:36 10° NNW
Lacrosse 4 Rocket 4.0 16:20:07 10° NNW 16:20:42 11° NNW 16:20:42 11° NNW
Cosmos 2369 Rocket 4.2 16:20:07 10° NW 16:23:32 16° N 16:23:39 16° N
Lacrosse 5 rocket 3.0 16:20:49 10° WNW 16:22:36 27° WNW 16:22:36 27° WNW
COSMO-SKYMED 1 4.3 16:27:44 24° SSW 16:27:44 24° SSW 16:29:27 10° SSW
USA 215 3.1 16:27:35 70° ENE 16:28:22 82° NNE 16:34:58 10° WNW
Cosmos 1697 Rocket 4.0 16:24:43 10° WSW 16:29:49 34° NW 16:31:37 28° N
USA 238 DEB 3.6 16:24:12 10° WSW 16:30:30 77° NW 16:31:31 64° NNE
USA 238 3.6 16:24:17 10° WSW 16:30:36 77° NW 16:31:37 64° NNE
Cosmos 2278 Rocket 3.9 16:33:52 10° NNW 16:36:24 21° N 16:36:24 21° N
Cosmos 1898 Rocket 4.1 16:34:22 10° SW 16:39:25 52° NW 16:39:35 51° NW
Cosmos 2333 Rocket 4.3 16:35:40 10° S 16:36:34 15° S 16:36:34 15° S
Cosmos 967 Rocket 4.5 16:38:32 10° SW 16:44:23 76° SW 16:44:23 76° SW
Resurs 01 Rocket 4.1 16:55:31 15° NNW 16:55:31 15° NNW 16:56:22 10° NNW
GEOS 3 Rocket 4.3 16:53:48 53° WNW 16:53:48 53° WNW 16:58:28 10° WSW
Cosmos 1937 Rocket 4.4 16:48:18 10° SW 16:52:25 46° W 16:52:25 46° W
Meteor 1-11 Rocket 4.3 16:50:42 10° NNW 16:55:23 54° NW 16:55:23 54° NW
SL-16 R/B 4.2 17:14:23 10° SW 17:15:59 20° SW 17:15:59 20° SW
Cosmos 1844 Rocket 4.5 17:24:21 10° NW 17:29:00 27° WSW 17:29:33 26° WSW
USA 281 4.4 17:37:29 35° NNW 17:37:29 35° NNW 17:41:04 10° NNW
Cosmos 1980 Rocket 4.0 17:30:07 10° W 17:34:03 27° NW 17:34:03 27° NW
CENTAUR R/B 3.8 17:42:45 10° NW 17:47:51 45° NNW 17:47:51 45° NNW
